User: anonymous
Location: Fort Wayne
(41.1310°N, 85.1290°W)
Time: 14:27:30
(UTC-04:00)
Language:

OPAL - Orbit

View from above orbital plane
View from above orbital plane
View from above satellite
View from above satellite

Ground track
Ground track

The orbit data is extracted from the following two-line orbital elements,

1 26063U 00004C   14209.04825221  .00000046  00000-0  35556-4 0   192
2 26063 100.2180 002.6276 0036968 043.9577 316.4534 14.36380955759899
Epoch (UTC): 28 July 2014 01:09:28
Eccentricity: 0.0036968
inclination: 100.2180°
perigee height: 744 km
apogee height: 797 km
right ascension of ascending node: 2.6276°
argument of perigee: 43.9577°
revolutions per day: 14.36380955
mean anomaly at epoch: 316.4534°
orbit number at epoch: 75989

The dashed part of the orbit path shows where the satellite is in the earth's shadow,  

DLR